Chariton, IA

8:54 AM CDT on August 29, 2016 (GMT -0500)
Chariton Municipal

Weather History for KCNC - April, 2014

Change the Weather History Date:

Tuesday, April 15, 2014

  Actual Average Record
Temperature  
Mean Temperature 35 °F -  
Max Temperature 46 °F 62 °F 89 °F (2002)
Min Temperature 24 °F 37 °F 19 °F (1950)
Degree Days  
Heating Degree Days 30    
Moisture  
Dew Point 22 °F    
Average Humidity 62    
Maximum Humidity 86    
Minimum Humidity 37    
Precipitation  
Precipitation 0.00 in - - ()
Sea Level Pressure  
Sea Level Pressure 30.12 in    
Wind  
Wind Speed 7 mph (WSW)    
Max Wind Speed 15 mph    
Max Gust Speed 21 mph    
Visibility 10 miles    
Events      
Averages and records for this station are not official NWS values.
T = Trace of Precipitation, MM = Missing Value Source: NWS Daily Summary

Daily Weather History Graph

Daily Weather History Graph

Search for Another Location

Airport or City:

Trip Planner

Search our weather history database for the weather conditions in past years. The results will help you decide how hot, cold, wet, or windy it might be!

Date:

Astronomy

Apr. 15, 2014 Rise Set
Actual Time 6:34 AM CDT 7:53 PM CDT
Civil Twilight 6:05 AM CDT 8:21 PM CDT
Nautical Twilight 5:31 AM CDT 8:56 PM CDT
Astronomical Twilight 4:55 AM CDT 9:32 PM CDT
Moon 8:35 PM CDT (4/15) 6:42 AM CDT (4/15)
Length of Visible Light 14h 16m
Length of Day
13h 19m
Full, 100% of the Moon is Illuminated
Apr 15
Full
Apr 22
Last Quarter
Apr 29
New
May 6
First Quarter
May 14
Full

Hourly Weather History & Observations

Time (CDT) Temp. Windchill Dew Point Humidity Pressure Visibility Wind Dir Wind Speed Gust Speed Precip Events Conditions
12:15 AM 30.2 °F 23.4 °F 21.2 °F 69% 30.15 in 10.0 mi NNW 6.9 mph - N/A   Partly Cloudy
12:35 AM 28.4 °F 21.2 °F 21.2 °F 74% 30.15 in 10.0 mi NW 6.9 mph - N/A   Scattered Clouds
12:55 AM 28.4 °F 22.2 °F 19.4 °F 69% 30.15 in 10.0 mi NW 5.8 mph - N/A   Partly Cloudy
1:15 AM 28.4 °F 22.2 °F 21.2 °F 74% 30.15 in 10.0 mi West 5.8 mph - N/A   Scattered Clouds
1:35 AM 28.4 °F 22.2 °F 21.2 °F 74% 30.15 in 10.0 mi West 5.8 mph - N/A   Scattered Clouds
1:55 AM 28.4 °F 22.2 °F 21.2 °F 74% 30.15 in 10.0 mi WNW 5.8 mph - N/A   Mostly Cloudy
2:15 AM 28.4 °F 22.2 °F 21.2 °F 74% 30.15 in 10.0 mi WNW 5.8 mph - N/A   Mostly Cloudy
2:35 AM 26.6 °F 20.0 °F 21.2 °F 80% 30.15 in 10.0 mi West 5.8 mph - N/A   Mostly Cloudy
2:55 AM 26.6 °F 20.0 °F 21.2 °F 80% 30.15 in 10.0 mi West 5.8 mph - N/A   Mostly Cloudy
3:15 AM 26.6 °F 20.0 °F 21.2 °F 80% 30.15 in 10.0 mi West 5.8 mph - N/A   Mostly Cloudy
3:35 AM 26.6 °F 21.2 °F 21.2 °F 80% 30.15 in 10.0 mi West 4.6 mph - N/A   Mostly Cloudy
3:55 AM 26.6 °F 20.0 °F 21.2 °F 80% 30.15 in 10.0 mi West 5.8 mph - N/A   Mostly Cloudy
4:15 AM 24.8 °F 17.9 °F 21.2 °F 86% 30.15 in 10.0 mi West 5.8 mph - N/A   Mostly Cloudy
4:35 AM 24.8 °F 17.9 °F 21.2 °F 86% 30.15 in 10.0 mi West 5.8 mph - N/A   Mostly Cloudy
4:55 AM 24.8 °F 17.9 °F 21.2 °F 86% 30.15 in 10.0 mi West 5.8 mph - N/A   Scattered Clouds
5:15 AM 24.8 °F 17.9 °F 21.2 °F 86% 30.15 in 10.0 mi West 5.8 mph - N/A   Partly Cloudy
5:35 AM 24.8 °F 16.9 °F 21.2 °F 86% 30.16 in 10.0 mi West 6.9 mph - N/A   Scattered Clouds
5:55 AM 24.8 °F 16.9 °F 21.2 °F 86% 30.17 in 10.0 mi West 6.9 mph - N/A   Mostly Cloudy
6:15 AM 24.8 °F 16.9 °F 21.2 °F 86% 30.17 in 10.0 mi WNW 6.9 mph - N/A   Mostly Cloudy
6:35 AM 24.8 °F 16.9 °F 21.2 °F 86% 30.18 in 10.0 mi WNW 6.9 mph - N/A   Scattered Clouds
6:55 AM 24.8 °F 16.9 °F 21.2 °F 86% 30.19 in 10.0 mi WNW 6.9 mph - N/A   Clear
7:15 AM 26.6 °F 19.1 °F 19.4 °F 74% 30.19 in 10.0 mi NW 6.9 mph - N/A   Clear
7:35 AM 26.6 °F 20.0 °F 21.2 °F 80% 30.19 in 10.0 mi NW 5.8 mph - N/A   Clear
7:55 AM 26.6 °F 19.1 °F 21.2 °F 80% 30.19 in 10.0 mi NW 6.9 mph - N/A   Clear
8:15 AM 28.4 °F 21.2 °F 23.0 °F 80% 30.19 in 10.0 mi NNW 6.9 mph - N/A   Clear
8:35 AM 28.4 °F 19.7 °F 21.2 °F 74% 30.19 in 10.0 mi North 9.2 mph - N/A   Clear
8:55 AM 28.4 °F 20.4 °F 21.2 °F 74% 30.20 in 10.0 mi North 8.1 mph - N/A   Clear
9:15 AM 30.2 °F 25.4 °F 23.0 °F 75% 30.20 in 10.0 mi Variable 4.6 mph - N/A   Clear
9:35 AM 30.2 °F 23.4 °F 21.2 °F 69% 30.20 in 10.0 mi North 6.9 mph - N/A   Clear
9:55 AM 32.0 °F 28.7 °F 21.2 °F 64% 30.20 in 10.0 mi NNE 3.5 mph - N/A   Clear
10:15 AM 32.0 °F 28.7 °F 21.2 °F 64% 30.20 in 10.0 mi Variable 3.5 mph - N/A   Clear
10:35 AM 33.8 °F 28.6 °F 21.2 °F 60% 30.20 in 10.0 mi West 5.8 mph 11.5 mph N/A   Clear
10:55 AM 33.8 °F 27.0 °F 23.0 °F 65% 30.20 in 10.0 mi WNW 8.1 mph - N/A   Clear
11:35 AM 35.6 °F 28.6 °F 21.2 °F 56% 30.20 in 10.0 mi WSW 9.2 mph 19.6 mph N/A   Scattered Clouds
11:55 AM 35.6 °F 29.9 °F 21.2 °F 56% 30.19 in 10.0 mi West 6.9 mph 18.4 mph N/A   Partly Cloudy
12:35 PM 37.4 °F 30.8 °F 21.2 °F 52% 30.19 in 10.0 mi West 9.2 mph 16.1 mph N/A   Scattered Clouds
1:15 PM 37.4 °F 29.8 °F 21.2 °F 52% 30.18 in 10.0 mi WNW 11.5 mph - N/A   Scattered Clouds
1:35 PM 39.2 °F 32.0 °F 23.0 °F 52% 30.17 in 10.0 mi WNW 11.5 mph - N/A   Mostly Cloudy
1:55 PM 39.2 °F 33.0 °F 21.2 °F 49% 30.16 in 10.0 mi West 9.2 mph 15.0 mph N/A   Mostly Cloudy
2:15 PM 41.0 °F 35.2 °F 21.2 °F 45% 30.16 in 10.0 mi WNW 9.2 mph - N/A   Partly Cloudy
2:35 PM 41.0 °F 36.4 °F 21.2 °F 45% 30.14 in 10.0 mi NW 6.9 mph - N/A   Clear
2:55 PM 42.8 °F 39.3 °F 21.2 °F 42% 30.14 in 10.0 mi SW 5.8 mph - N/A   Clear
3:15 PM 42.8 °F 38.0 °F 23.0 °F 46% 30.12 in 10.0 mi South 8.1 mph - N/A   Clear
3:35 PM 42.8 °F 37.5 °F 21.2 °F 42% 30.11 in 10.0 mi SSW 9.2 mph - N/A   Clear
3:55 PM 42.8 °F 40.1 °F 21.2 °F 42% 30.10 in 10.0 mi SW 4.6 mph - N/A   Clear
4:15 PM 42.8 °F 40.1 °F 19.4 °F 39% 30.10 in 10.0 mi Variable 4.6 mph - N/A   Clear
4:35 PM 44.6 °F 39.7 °F 23.0 °F 43% 30.10 in 10.0 mi SW 9.2 mph - N/A   Clear
4:55 PM 44.6 °F 40.2 °F 21.2 °F 39% 30.09 in 10.0 mi WSW 8.1 mph - N/A   Clear
5:15 PM 44.6 °F 39.7 °F 23.0 °F 43% 30.08 in 10.0 mi SSW 9.2 mph - N/A   Clear
5:35 PM 46.4 °F 42.4 °F 21.2 °F 37% 30.07 in 10.0 mi SSW 8.1 mph - N/A   Clear
5:55 PM 46.4 °F 42.4 °F 21.2 °F 37% 30.06 in 10.0 mi South 8.1 mph 16.1 mph N/A   Clear
6:15 PM 46.4 °F 42.4 °F 21.2 °F 37% 30.05 in 10.0 mi South 8.1 mph - N/A   Clear
6:35 PM 46.4 °F 41.5 °F 21.2 °F 37% 30.05 in 10.0 mi South 10.4 mph - N/A   Clear
6:55 PM 46.4 °F 41.5 °F 23.0 °F 40% 30.05 in 10.0 mi South 10.4 mph - N/A   Clear
7:15 PM 44.6 °F 39.7 °F 23.0 °F 43% 30.05 in 10.0 mi South 9.2 mph - N/A   Clear
7:35 PM 42.8 °F 38.0 °F 24.8 °F 49% 30.04 in 10.0 mi South 8.1 mph - N/A   Clear
7:55 PM 42.8 °F 37.0 °F 23.0 °F 46% 30.04 in 10.0 mi SSE 10.4 mph - N/A   Clear
8:15 PM 42.8 °F 37.5 °F 24.8 °F 49% 30.04 in 10.0 mi SSE 9.2 mph - N/A   Mostly Cloudy
8:35 PM 41.0 °F 35.2 °F 26.6 °F 57% 30.05 in 10.0 mi SSE 9.2 mph - N/A   Scattered Clouds
8:55 PM 41.0 °F 34.7 °F 26.6 °F 57% 30.05 in 10.0 mi SSE 10.4 mph - N/A   Clear
9:15 PM 39.2 °F 33.0 °F 24.8 °F 56% 30.04 in 10.0 mi SSE 9.2 mph - N/A   Partly Cloudy
9:35 PM 39.2 °F 32.5 °F 24.8 °F 56% 30.04 in 10.0 mi SE 10.4 mph - N/A   Mostly Cloudy
9:55 PM 39.2 °F 32.5 °F 24.8 °F 56% 30.04 in 10.0 mi SSE 10.4 mph - N/A   Overcast
10:15 PM 39.2 °F 32.5 °F 24.8 °F 56% 30.03 in 10.0 mi SSE 10.4 mph - N/A   Overcast
10:35 PM 39.2 °F 31.6 °F 26.6 °F 61% 30.02 in 10.0 mi SSE 12.7 mph 19.6 mph N/A   Overcast
10:55 PM 39.2 °F 31.2 °F 26.6 °F 61% 30.02 in 10.0 mi SSE 13.8 mph 20.7 mph N/A   Overcast
11:15 PM 39.2 °F 30.8 °F 26.6 °F 61% 30.01 in 10.0 mi SSE 15.0 mph - N/A   Overcast
11:35 PM 39.2 °F 30.8 °F 28.4 °F 65% 30.00 in 10.0 mi SSE 15.0 mph - N/A   Overcast
11:55 PM 39.2 °F 31.2 °F 28.4 °F 65% 30.00 in 10.0 mi SSE 13.8 mph - N/A   Overcast